Theta_e
326 326 326 322 308 305 301 302 307 306 306 310 310 308 307 309 306 303 324 329 331 335 343 348 351 353 352 351 351 349 349 349 349 351 350 349 348 347 348 348 347 346 344 342 340 339 339 339 336
323 322 323 314 303 299 299 305 304 306 309 310 310 309 308 306 313 315 321 330 331 334 343 347 348 352 352 351 351 349 348 349 350 350 349 348 346 346 345 344 345 343 341 339 337 335 333 332 330
322 320 313 308 303 299 300 305 306 308 310 309 308 311 310 309 314 318 326 331 331 333 343 346 348 351 352 352 351 349 348 349 350 349 348 347 346 343 340 339 338 339 338 335 332 330 329 327 326
319 317 313 302 300 303 303 306 308 308 309 309 309 307 312 315 316 321 326 332 331 332 340 345 347 351 352 351 350 349 348 348 350 349 347 346 341 338 335 334 338 337 335 331 329 327 326 324 321
318 313 304 301 301 303 306 307 308 307 308 308 309 307 309 314 317 320 326 331 331 331 337 344 345 348 350 351 351 349 349 349 350 349 347 343 341 338 333 333 334 333 331 328 326 325 322 321 319
310 310 301 299 300 304 306 309 308 307 308 308 307 308 309 316 315 318 324 330 333 332 334 337 339 343 346 349 349 349 349 350 349 347 342 341 340 337 333 331 332 330 327 325 326 322 321 319 317
308 305 301 301 301 302 305 308 307 307 306 307 310 305 310 314 316 318 322 328 332 334 334 337 340 341 338 343 344 346 348 348 347 342 340 340 338 335 333 330 329 327 325 325 324 321 320 318 315
311 307 301 302 300 300 306 307 309 307 306 310 311 305 307 315 316 319 323 326 330 333 334 336 338 340 342 344 336 339 342 342 341 338 335 334 333 333 331 328 328 325 324 323 322 320 318 315 312
312 302 299 301 300 302 306 304 308 310 307 309 310 310 313 314 315 318 321 323 327 330 333 335 337 338 339 340 339 333 334 335 335 333 330 327 332 331 327 324 327 326 325 322 320 319 316 312 308
307 303 302 306 305 303 305 305 306 306 306 307 309 313 314 314 313 314 316 318 322 326 330 333 335 337 338 336 338 341 340 340 339 337 335 334 332 330 324 321 323 326 323 321 319 316 312 308 306
307 302 305 306 307 307 305 304 307 304 303 306 307 309 312 313 313 312 313 315 318 323 327 329 333 335 337 337 337 337 337 337 340 339 337 334 331 328 323 322 321 323 317 316 315 310 305 306 306
303 306 306 307 307 305 304 306 304 305 306 309 310 311 311 310 311 311 312 313 315 318 322 327 329 332 334 336 335 336 336 336 337 337 336 333 330 325 322 320 321 323 318 316 314 308 308 305 303
303 304 306 307 307 306 306 304 304 304 308 310 310 310 309 310 310 312 313 314 315 315 319 324 329 329 331 333 334 333 334 335 336 335 334 331 327 323 320 318 320 320 317 314 310 307 305 304 302
305 304 304 305 304 305 302 303 304 305 308 308 308 308 309 309 310 311 311 312 313 314 318 321 324 328 328 330 332 332 333 333 333 333 331 330 326 322 318 317 318 317 315 311 307 305 304 304 303
303 299 302 303 304 303 303 299 300 306 308 306 306 307 308 309 310 310 311 312 312 314 315 318 321 325 326 328 330 331 331 330 331 331 330 327 325 320 316 315 315 314 312 308 305 304 304 302 301
299 300 295 302 301 302 301 295 302 306 304 303 305 306 307 308 309 310 311 311 312 313 313 315 316 320 324 325 327 328 329 329 329 330 328 325 323 318 315 312 312 312 307 304 303 302 301 301 300
299 293 296 298 303 300 299 296 302 305 304 303 304 304 305 306 309 310 310 310 311 311 311 312 314 316 319 323 325 326 327 327 327 327 326 324 320 317 312 310 310 309 304 302 301 300 300 299 299
295 296 297 296 301 301 299 298 301 304 303 303 304 305 306 306 307 307 307 308 308 309 310 311 311 312 314 318 321 323 324 325 325 324 323 322 319 315 311 309 308 305 302 301 301 300 300 300 299
298 296 295 298 301 299 297 297 299 302 302 302 304 305 306 305 306 306 305 305 305 305 305 306 307 309 310 313 315 317 318 320 321 322 321 320 317 314 311 307 306 303 301 300 300 300 299 299 298
296 294 294 298 300 298 296 295 298 300 302 304 304 304 304 304 303 302 302 301 301 301 302 303 304 306 307 309 313 314 315 317 318 319 319 318 316 313 309 307 304 302 300 300 300 299 297 298 297
296 294 294 294 297 297 295 294 299 301 305 305 304 303 302 301 299 299 299 299 299 299 300 301 302 303 305 306 309 310 311 309 310 312 314 314 314 312 309 306 304 302 300 299 299 299 297 295 296
291 298 295 293 291 289 295 286 295 300 301 301 301 300 300 299 299 299 298 298 298 298 300 300 300 301 302 304 305 305 305 303 306 306 309 310 311 310 309 306 305 302 300 299 299 298 298 297 293
294 295 293 293 291 292 293 289 294 300 297 297 297 298 298 298 297 297 297 297 297 298 298 299 298 298 300 301 302 302 302 303 305 304 304 306 307 306 307 306 304 302 300 299 298 297 297 297 296
296 293 293 294 292 286 293 291 292 295 295 296 296 297 297 297 297 296 297 297 296 298 297 297 297 296 298 298 299 299 299 300 300 302 301 303 303 303 303 304 303 302 300 299 298 297 296 296 297
293 291 286 285 287 286 293 290 293 298 297 297 295 295 296 296 295 295 294 294 294 294 296 295 295 295 296 297 296 296 296 297 298 299 299 300 301 301 300 301 301 300 300 299 298 297 296 296 295
294 293 287 280 282 287 293 288 293 299 296 297 296 295 295 294 294 294 293 293 293 293 293 294 293 292 293 294 295 295 295 295 296 296 297 298 298 300 301 299 299 299 299 298 297 296 296 295 295
293 289 294 287 287 284 288 293 299 299 295 295 294 294 292 293 293 293 293 292 292 292 292 292 292 292 291 292 293 294 294 294 293 294 295 296 296 297 297 298 297 297 297 296 296 295 294 294 294
292 293 287 288 279 278 285 287 289 294 294 293 292 290 290 291 292 292 292 291 291 292 292 291 291 289 289 290 291 291 291 292 293 293 293 293 293 294 294 295 295 295 295 294 294 293 293 292 292
290 288 289 289 287 280 279 284 293 292 293 291 288 288 288 288 288 290 291 290 289 289 289 289 289 288 288 288 289 290 290 290 289 289 290 291 291 292 291 292 292 292 292 293 293 292 291 291 291
294 290 290 284 282 285 283 284 295 292 290 289 287 287 288 288 287 287 289 289 287 287 287 287 287 287 287 287 288 288 287 288 287 287 287 289 289 290 290 290 289 290 290 291 290 290 289 289 289
Wind_Speed
7 6 5 5 7 4 3 3 4 3 2 5 3 7 11 10 8 6 3 5 2 13 16 17 13 15 14 13 13 12 11 11 11 13 12 11 10 10 10 9 10 9 10 9 8 7 6 7 7
3 5 5 5 6 6 7 4 0 6 6 4 5 6 7 5 3 0 3 7 6 12 13 16 13 14 14 13 13 13 12 11 12 12 12 11 10 9 8 6 6 7 8 9 8 7 7 7 6
5 4 5 4 4 6 6 3 5 5 3 4 5 2 7 4 1 3 4 8 9 13 12 14 13 14 14 14 13 12 11 10 11 12 11 11 11 9 7 6 2 4 8 6 7 6 6 6 6
4 5 5 6 6 6 4 8 8 7 3 1 4 9 3 3 2 5 2 9 9 12 13 14 16 13 14 13 13 12 12 12 11 13 12 12 9 7 6 2 3 5 6 5 5 6 6 5 5
4 3 5 5 7 3 4 5 5 6 3 2 2 4 6 5 3 3 4 8 9 11 12 13 14 13 14 14 14 13 12 12 13 13 12 11 11 7 5 5 5 6 6 5 6 6 5 6 6
4 4 6 6 4 4 2 2 4 4 2 0 4 8 5 6 5 5 5 8 9 11 12 12 12 9 11 13 14 14 13 13 14 14 11 10 9 8 7 6 6 6 6 6 7 6 6 6 6
6 5 8 8 9 5 0 0 4 4 5 6 3 8 5 8 4 3 5 7 9 10 12 11 14 13 9 11 12 13 13 15 14 13 10 8 8 8 8 8 8 7 7 7 7 7 7 6 6
5 4 6 4 6 8 3 2 4 7 11 3 3 5 5 9 5 3 4 7 9 10 13 13 13 14 14 13 10 11 12 12 12 13 11 10 10 9 8 6 6 8 8 8 8 8 7 7 6
3 6 7 8 7 2 5 6 6 5 10 13 8 13 14 3 1 4 6 8 9 10 13 13 14 14 15 14 12 9 8 9 10 10 11 10 7 10 11 10 10 10 10 9 9 8 8 8 6
6 8 9 5 9 9 11 9 11 11 13 18 15 16 13 12 9 11 11 11 13 14 14 14 15 15 14 11 13 14 10 10 10 11 11 9 10 8 10 9 8 9 10 10 10 9 8 7 4
5 10 12 12 12 14 12 14 14 13 17 16 13 13 14 14 11 14 15 15 14 15 12 15 15 15 15 11 9 7 8 7 9 14 10 10 8 7 6 5 6 7 8 6 8 7 5 2 1
10 13 14 16 10 7 14 17 14 15 22 20 20 19 18 15 16 14 15 13 13 13 14 16 17 15 15 9 9 9 9 9 9 10 12 9 7 7 7 6 8 7 6 7 6 4 3 4 2
14 14 15 13 14 14 17 21 19 22 22 23 20 18 16 16 17 14 13 12 12 15 15 15 16 16 13 15 10 11 11 10 11 10 12 10 10 9 8 8 7 7 7 6 6 5 5 4 4
13 11 16 18 17 16 17 22 16 22 16 15 14 16 16 16 16 12 10 12 13 14 14 14 15 16 15 14 15 10 10 10 10 9 10 15 10 9 9 8 8 8 7 7 6 6 5 5 4
9 13 16 20 20 12 6 16 14 18 13 11 17 17 18 19 16 15 16 15 15 11 13 13 15 15 17 17 14 11 10 10 10 10 12 15 13 11 11 9 8 8 6 7 6 6 5 5 4
10 13 13 6 3 2 7 15 18 7 9 17 20 23 20 21 18 16 15 17 12 12 11 11 9 13 15 15 12 10 10 9 9 9 9 14 14 12 11 9 9 9 8 8 7 7 6 6 5
13 14 18 15 11 2 11 13 14 20 21 24 24 21 18 18 16 10 12 13 13 10 11 9 10 12 13 13 11 11 11 10 9 9 9 13 14 13 10 8 8 10 8 8 8 8 8 7 6
17 19 20 15 16 14 17 22 20 21 20 24 23 19 15 12 10 13 17 15 12 11 10 7 6 8 10 9 9 8 8 8 8 8 9 12 11 13 11 8 9 9 7 8 8 9 7 7 7
20 21 23 21 20 22 21 21 20 20 24 23 19 15 8 5 14 15 16 17 17 16 15 13 7 5 5 7 7 7 8 7 8 8 10 11 11 13 12 9 10 9 8 8 9 7 9 6 7
18 21 21 20 16 12 17 20 25 22 19 14 12 10 5 12 14 15 17 19 20 19 18 15 12 7 2 4 3 5 5 7 7 6 8 9 10 11 11 11 11 12 9 10 10 10 8 5 9
17 19 22 23 17 17 13 15 12 10 19 10 7 12 17 14 14 15 16 17 16 18 18 17 15 10 6 3 3 3 4 3 5 5 6 6 9 10 12 13 11 12 11 11 13 12 13 8 9
15 11 7 12 10 10 7 12 11 17 12 9 13 15 14 14 14 14 15 17 18 17 14 15 15 14 11 7 3 4 4 5 4 5 4 5 7 10 11 12 13 13 11 12 11 11 11 10 9
8 2 7 7 11 17 14 10 5 15 8 14 12 12 12 13 13 15 17 17 16 16 15 15 16 16 15 13 8 5 4 5 5 2 2 5 6 9 11 13 13 11 10 12 14 15 14 10 8
6 8 14 13 9 9 6 7 4 5 5 13 10 11 11 11 12 13 12 12 12 12 12 13 15 17 16 14 12 10 9 8 6 5 5 3 5 6 10 11 11 11 11 12 11 13 15 13 12
6 9 7 8 9 13 5 7 8 6 3 5 10 9 10 10 11 11 11 10 11 12 11 13 16 18 17 16 15 12 10 10 10 7 5 5 5 4 7 10 11 10 12 11 11 12 13 15 12
10 9 8 11 14 16 8 13 9 5 12 12 10 10 9 9 8 8 10 9 10 11 15 15 15 15 15 15 15 14 14 8 7 8 8 6 6 4 6 7 9 11 12 12 11 9 10 12 11
4 8 8 7 11 9 14 23 18 12 13 9 10 9 8 7 6 8 10 12 12 12 13 13 14 14 14 13 11 11 11 12 11 11 9 7 9 7 6 6 8 10 12 12 12 10 11 11 12
6 5 7 4 6 16 12 18 14 7 12 11 8 7 6 8 10 11 11 10 10 10 11 14 15 14 13 13 11 10 11 11 10 9 10 9 9 10 10 7 7 7 10 11 11 10 10 12 10
10 10 11 12 12 14 16 13 9 10 8 7 7 7 8 8 8 8 7 8 9 10 12 13 13 13 12 11 11 10 9 10 9 9 10 10 10 9 9 8 7 7 9 10 11 11 11 13 13
14 16 16 13 10 11 14 12 10 8 7 5 4 5 5 5 6 6 5 7 9 11 11 11 10 10 10 10 9 9 9 9 9 10 10 10 10 10 9 9 7 7 8 9 10 12 10 13 14
Wind_Direction
247 268 286 257 259 229 270 91 344 333 309 31 320 310 336 314 308 6 130 180 203 164 158 172 175 172 170 168 163 161 163 168 167 156 149 141 137 127 120 114 120 116 109 103 95 96 87 82 67
294 286 239 285 261 263 84 65 335 25 5 325 291 266 268 307 359 343 207 169 176 164 167 180 173 173 171 170 165 166 170 172 172 162 159 155 145 132 121 112 118 125 102 97 98 91 87 79 73
256 263 270 288 292 345 5 54 21 335 320 279 297 243 310 320 48 4 61 158 171 169 176 181 164 179 175 174 171 173 178 183 182 168 166 156 147 134 100 89 88 122 100 108 101 96 90 80 68
247 197 210 259 310 326 288 326 345 310 116 216 311 277 184 308 343 44 75 158 177 172 181 148 163 182 180 182 181 182 184 190 189 165 164 163 141 135 88 202 139 119 132 118 108 111 102 89 73
232 245 258 251 286 286 308 307 313 299 308 260 238 295 290 141 130 152 155 173 184 180 188 163 170 187 185 184 188 189 192 195 179 167 171 167 157 160 175 191 169 148 144 142 132 112 106 93 80
232 290 247 271 342 327 324 1 287 276 312 224 248 281 294 109 169 177 186 190 196 188 189 194 177 194 194 188 189 192 195 193 184 173 170 157 152 189 198 191 177 167 162 153 138 131 119 106 91
285 269 289 301 295 291 306 203 248 337 290 289 315 283 300 179 148 158 193 201 199 199 191 199 187 196 194 196 196 195 193 188 181 165 159 155 160 198 194 196 185 180 173 157 147 137 130 116 102
280 269 271 247 300 305 143 203 311 292 308 23 299 255 282 88 118 173 204 211 202 207 195 201 199 195 200 197 185 181 181 180 176 166 161 157 136 156 173 175 189 189 172 159 151 146 137 123 115
279 255 265 271 276 309 139 276 144 291 274 272 241 276 303 64 196 213 213 220 214 210 206 205 205 203 204 205 190 190 189 187 177 173 161 153 186 189 183 196 172 188 166 166 161 153 139 126 115
239 252 281 288 291 282 303 289 288 283 270 271 267 245 254 246 252 251 236 234 219 218 211 210 207 209 205 207 201 200 200 207 203 197 182 190 194 199 201 177 170 176 156 167 167 151 144 201 162
217 252 279 289 280 292 287 288 280 259 270 269 291 297 303 291 254 256 258 252 246 219 217 214 213 210 210 209 203 195 198 207 211 208 195 199 195 189 188 172 181 172 160 177 170 160 197 165 164
257 248 269 282 301 285 277 288 273 263 269 288 287 291 294 282 273 263 264 258 255 246 220 210 215 212 210 208 206 209 205 195 213 207 194 197 193 183 188 187 185 183 174 186 177 175 148 158 126
246 268 275 280 277 268 279 270 274 274 282 281 286 284 276 272 271 270 266 264 251 245 229 216 203 211 211 207 206 210 209 200 206 203 193 190 191 188 189 192 183 180 174 179 174 172 171 158 149
313 300 285 278 274 270 266 275 284 273 276 281 285 285 282 274 279 273 264 262 247 240 237 224 215 209 210 213 215 209 211 206 206 200 195 195 194 188 187 187 188 185 180 175 178 174 169 164 149
284 292 293 280 264 243 269 276 239 266 267 270 284 281 293 294 279 261 266 263 270 245 234 228 220 210 213 210 212 218 210 208 205 205 196 194 204 193 188 187 184 186 174 173 172 168 163 156 157
270 272 277 295 15 119 198 278 293 354 319 293 284 289 291 289 288 291 292 293 277 272 241 230 225 224 217 219 212 211 213 208 214 204 197 196 205 200 193 188 187 180 172 177 176 172 170 172 171
242 268 278 295 297 183 214 277 293 306 297 289 286 287 294 297 307 335 347 335 324 300 283 255 229 227 230 227 227 217 218 214 209 208 203 200 198 203 195 194 187 178 178 184 180 176 176 171 173
286 293 296 286 295 260 271 278 286 288 290 276 279 287 290 301 4 30 23 12 6 356 336 316 287 242 236 234 232 227 220 219 219 218 213 203 200 200 199 194 184 177 185 186 184 178 183 172 161
277 284 285 285 297 296 298 298 297 289 281 279 281 287 296 26 67 46 38 28 23 23 13 1 337 275 227 231 227 228 232 216 222 223 219 214 202 200 202 195 184 176 188 191 185 172 174 173 151
279 281 282 287 296 311 290 295 292 289 277 283 296 313 58 88 57 41 32 29 25 19 16 15 10 346 275 257 248 261 245 235 233 231 228 215 212 204 204 201 191 178 182 190 188 182 168 177 176
271 283 291 296 310 290 297 282 289 254 288 301 356 91 72 55 49 40 35 34 29 27 19 20 19 26 22 357 305 267 286 360 281 237 242 221 228 210 208 206 202 188 187 187 184 186 184 175 193
274 283 298 296 301 300 19 297 291 275 263 71 101 75 73 56 44 43 38 34 31 25 23 38 37 33 32 27 21 340 292 274 259 260 265 236 223 230 223 219 215 199 192 194 190 186 190 186 186
264 307 285 279 268 286 274 259 268 278 268 110 91 78 66 68 56 44 35 32 29 29 24 28 34 42 38 27 17 5 328 298 301 313 320 223 234 231 237 224 229 221 212 201 187 186 192 198 194
349 276 263 259 264 262 296 271 289 22 359 123 115 94 75 64 63 60 53 40 35 36 37 34 44 43 36 31 27 14 347 332 322 310 292 244 229 226 234 237 233 227 220 215 203 195 195 198 196
227 276 293 270 251 267 223 276 264 323 162 136 124 91 71 64 58 53 53 50 41 34 33 43 36 39 32 27 27 19 9 346 328 322 298 288 269 241 244 234 227 230 228 221 216 208 203 202 203
281 264 266 287 285 296 288 268 246 2 114 122 123 116 96 70 56 55 52 47 44 34 32 34 42 41 33 30 21 19 15 6 346 338 323 313 301 279 259 252 238 229 232 229 222 217 214 212 214
287 240 289 289 277 280 263 269 273 228 153 134 118 105 87 82 56 33 35 35 27 31 35 34 37 35 31 26 23 22 17 14 5 353 339 328 317 308 298 274 244 243 236 230 223 220 222 219 210
236 351 264 214 252 260 260 273 272 256 168 143 114 88 63 39 37 31 24 24 25 25 23 30 33 30 23 21 21 15 17 11 7 0 2 346 330 321 307 290 274 241 245 241 227 222 223 222 223
255 252 241 266 248 260 268 266 26 41 85 109 77 47 31 29 24 26 25 17 18 25 27 29 22 17 14 15 11 8 11 7 5 4 2 353 343 332 317 305 289 267 251 237 238 236 230 226 226
296 270 275 256 249 249 264 259 7 85 85 77 46 2 359 9 9 14 15 26 21 13 17 19 16 15 6 0 360 6 5 2 4 358 354 351 346 339 334 319 294 272 269 259 244 238 232 238 233